Powrót do katalogu

AZUR

GRS A

AktywnyNaukaVLEO
NORAD 4221·PAYLOAD·🇩🇪 Germany

Wystrzelony Nov 8, 1969 z Vandenberg Space Force Base

Loading…

Następne Przeloty (najbliższe 24 godziny)

TLE

ŚwieżeSource: Space-Track

Epoka: Sep 14, 2026, 14:34 UTC

1 04221U 69097A   26257.60734168  .00039075  00000-0  44919-3 0  9991
2 04221 102.6603 105.4730 0188073 284.2713  73.7694 15.43368736739183

Śledź AZUR w czasie rzeczywistym z AllMySat

Download on the App Store